ARIANE 44L DEB, 24724

Orbit data source: Space-Track

ARIANE 44L DEB, 24724 is space debris in HEO originally from a launch on Tue, 15 Jan 1991 UTC launched from the French Guiana (FRGUI). Debris objects in space refer to the collection of defunct objects orbiting the Earth. Examples of debris include non-operational satellites, rocket bodies, and fragments generated from explosions, collisions, or faulty payload assembly.

Loading next visibility...
Identifier
24724, 1991-003G
Orbit
HEO
Country
Flag of FRFR
Related business
Manufacturer
Unknown
Mission
Spacecraft
Bus & Motor
Unknown
Mass
Unknown
Launch date (UTC)
1991-01-15 (35 years ago)
Launch vehicle
Unknown
Launch site
French Guiana (FRGUI)
Object type
Payload
Rocket body
Debris
Shape & HBR
Unknown shape, 0.7 m
Radar Cross Section
Large (>1 m²)

Expand to show TLE details & history
Last TLE update: 3 days ago

TLE from 3 days ago
0 ARIANE 44L DEB
1 24724U 91003G   26170.83992255  .00000266  00000-0  10736-2 0  9994
2 24724   5.8889 324.6475 6749927 281.3759  15.0417  2.85847900304748
Epoch: 2026-06-19T20:09Z
TLE epoch observation values (Epoch: 2026-06-19T20:09:29.308Z)
Latitude
-0.00028°
Longitude
114.27203°
Altitude
3,685.321 km
Speed
7.759 km/s
True Right ascension
21h 38m 49s
True Declination
0° 00' 01"
Sunlit
Object was in daylight at epoch
Visualization orbit readout
Latitude
Unknown
Longitude
Unknown
Altitude
Unknown
Speed
Unknown
Apparent Right ascension
Unknown
Apparent Declination
Unknown
Sunlit
N/A
Visualization observer readout
Local Sidereal Time
23:08:15
Azimuth
Unknown
Elevation
Unknown
Doppler factor
Unknown
Orbital elements
Apogee altitude
28,758.883 km
Perigee altitude
439.676 km
Semi-major axis
20,977.416 km
Eccentricity
0.67499
Inclination
5.8889°
RAAN
324.6475°
Arg. of periapsis
281.3759°
True anomaly
78.81813°
Mean anomaly
15.0417°
Eccentric anomaly
39.79471°
Mean motion
0.71436 °/min
Orbital period
503.95 mins
BSTAR
0.0010736
Loading maneuver chart data...
Computing Atmospheric mass density...
Loading historical data...
Loading historical data...
Loading historical data...
Loading historical data...
Loading historical data...
Loading historical data...
Loading historical data...

Documentation

Showing up to 5 results
|